Boise, ID

7:44 PM MDT on April 21, 2018 (GMT -0600)
Boise Air Term

Weather History for KBOI - March, 2014

Change the Weather History Date:

Tuesday, March 4, 2014

  Actual Average Record
Temperature  
Mean Temperature 49 °F 41 °F  
Max Temperature 57 °F 51 °F 70 °F (1987)
Min Temperature 40 °F 32 °F 11 °F (1976)
Degree Days  
Heating Degree Days 16 24  
Month to date heating degree days 73 96  
Since 1 July heating degree days 4413 4255  
Cooling Degree Days 0 0  
Month to date cooling degree days 0 0  
Year to date cooling degree days 0 0  
Moisture  
Dew Point 39 °F    
Average Humidity 72    
Maximum Humidity 100    
Minimum Humidity 43    
Precipitation  
Precipitation 0.00 in 0.05 in 0.84 in (1890)
Month to date precipitation 0.77 0.17  
Year to date precipitation 3.78 2.40  
Snow  
Snow 0.00 in 0.00 in 2.20 in (1951)
Month to date snowfall 0.0 0.2  
Since 1 July snowfall 14.4 17.8  
Snow Depth 0.00 in    
Sea Level Pressure  
Sea Level Pressure 30.02 in    
Wind  
Wind Speed 4 mph (ENE)    
Max Wind Speed 13 mph    
Max Gust Speed 16 mph    
Visibility 8 miles    
Events      
T = Trace of Precipitation, MM = Missing Value Source: NWS Daily Summary

Daily Weather History Graph

Daily Weather History Graph

Search for Another Location

Airport or City:

Astronomy

Mar. 04, 2014 Rise Set
Actual Time 7:16 AM MST 6:37 PM MST
Civil Twilight 6:47 AM MST 7:06 PM MST
Nautical Twilight 6:14 AM MST 7:39 PM MST
Astronomical Twilight 5:41 AM MST 8:12 PM MST
Moon 8:57 AM MST (3/4) 10:58 PM MST (3/4)
Length of Visible Light 12h 18m
Length of Day
11h 21m
Waxing Crescent, 15% of the Moon is Illuminated
Mar 4
Waxing Crescent
Mar 8
First Quarter
Mar 16
Full
Mar 23
Last Quarter
Mar 30
New

Hourly Weather History & Observations

Time (MST) Temp. Windchill Dew Point Humidity Pressure Visibility Wind Dir Wind Speed Gust Speed Precip Events Conditions
12:53 AM 43.0 °F 41.3 °F 42.1 °F 97% 29.95 in 10.0 mi ESE 3.5 mph - N/A   Scattered Clouds
1:53 AM 43.0 °F - 41.0 °F 93% 29.96 in 10.0 mi Calm Calm - N/A   Scattered Clouds
2:53 AM 42.1 °F 40.2 °F 41.0 °F 96% 29.96 in 10.0 mi East 3.5 mph - N/A   Overcast
3:53 AM 43.0 °F - 41.0 °F 93% 29.95 in 10.0 mi Calm Calm - N/A   Overcast
4:53 AM 42.1 °F - 39.9 °F 92% 29.96 in 10.0 mi Calm Calm - N/A   Scattered Clouds
5:53 AM 41.0 °F - 39.0 °F 93% 29.98 in 10.0 mi Calm Calm - N/A   Partly Cloudy
6:53 AM 41.0 °F 39.0 °F 41.0 °F 100% 30.02 in 7.0 mi West 3.5 mph - N/A   Overcast
7:01 AM 41.0 °F 39.0 °F 41.0 °F 100% 30.01 in 6.0 mi NW 3.5 mph - N/A   Overcast
7:10 AM 41.0 °F - 41.0 °F 100% 30.01 in 3.0 mi Calm Calm - N/A   Mostly Cloudy
7:18 AM 41.0 °F - 41.0 °F 100% 30.02 in 3.0 mi Calm Calm - N/A   Mostly Cloudy
7:53 AM 41.0 °F 39.0 °F 41.0 °F 100% 30.03 in 2.5 mi ENE 3.5 mph - N/A   Mostly Cloudy
7:59 AM 41.0 °F 39.0 °F 41.0 °F 100% 30.02 in 1.2 mi East 3.5 mph - N/A   Overcast
8:31 AM 42.8 °F - 42.8 °F 100% 30.03 in 2.5 mi Calm Calm - N/A   Mostly Cloudy
8:42 AM 42.8 °F - 42.8 °F 100% 30.03 in 3.0 mi Calm Calm - N/A   Partly Cloudy
8:53 AM 43.0 °F - 42.1 °F 97% 30.04 in 4.0 mi Calm Calm - N/A   Partly Cloudy
9:53 AM 46.9 °F - 42.1 °F 83% 30.06 in 10.0 mi WNW 3.5 mph - N/A   Clear
10:53 AM 50.0 °F - 39.0 °F 66% 30.07 in 10.0 mi WNW 9.2 mph - N/A   Clear
11:53 AM 52.0 °F - 37.0 °F 57% 30.07 in 10.0 mi Variable 4.6 mph - N/A   Clear
12:29 PM 53.6 °F - 39.2 °F 58% 30.08 in 10.0 mi WNW 6.9 mph - N/A   Mostly Cloudy
12:53 PM 53.1 °F - 39.0 °F 59% 30.09 in 10.0 mi NW 9.2 mph - N/A   Mostly Cloudy
1:53 PM 53.1 °F - 37.0 °F 55% 30.07 in 10.0 mi NNW 3.5 mph - N/A   Partly Cloudy
2:53 PM 55.0 °F - 37.0 °F 51% 30.04 in 10.0 mi Calm Calm - N/A   Mostly Cloudy
3:53 PM 57.0 °F - 37.0 °F 47% 30.02 in 10.0 mi NE 5.8 mph - N/A   Clear
4:53 PM 57.0 °F - 36.0 °F 45% 30.01 in 10.0 mi North 5.8 mph - N/A   Clear
5:53 PM 55.9 °F - 34.0 °F 44% 30.02 in 10.0 mi Calm Calm - N/A   Partly Cloudy
6:53 PM 53.1 °F - 36.0 °F 52% 30.04 in 10.0 mi SSE 3.5 mph - N/A   Partly Cloudy
7:53 PM 50.0 °F - 37.0 °F 61% 30.05 in 10.0 mi ESE 5.8 mph - N/A   Clear
8:53 PM 48.0 °F - 36.0 °F 63% 30.04 in 10.0 mi SE 9.2 mph - N/A   Clear
9:53 PM 46.9 °F - 36.0 °F 66% 30.04 in 10.0 mi SE 10.4 mph - N/A   Scattered Clouds
10:53 PM 46.9 °F - 35.1 °F 63% 30.04 in 10.0 mi SE 9.2 mph - N/A   Partly Cloudy
11:53 PM 46.9 °F - 35.1 °F 63% 30.03 in 10.0 mi SE 9.2 mph - N/A   Mostly Cloudy